Location: Cormont
(50.5693°N, 1.7416°E)
Time: 07:44:48
(UTC+00:00)

STARLINK-44 - Pass Details

Date: 21 October 2019
Orbit: 548 x 551 km, 53.0° (Epoch: 11 November)

Event Time Altitude Azimuth Distance (km) Brightness Sun altitude
Rises 18:15:13 0° 276° (W) 2,718 9.1 -14.3°
Reaches altitude 10° 18:17:29 10° 280° (W) 1,824 7.6 -14.6°
Maximum altitude 18:21:35 60° 1° (N) 631 3.9 -15.3°
Enters shadow 18:23:36 28° 72° (ENE) 1,051 4.5 -15.6°
